Location: Newark
(41.0400°S, 62.7845°W)
Time: 00:41:38
(UTC+00:00)

A-11 Canister half - All Passes

Search period start: 28 November 2021 00:00
Search period end: 08 December 2021 00:00
Orbit: 1516 x 1684 km, 47.2° (Epoch: 27 November)

Date Brightness Start Highest point End Pass type
(mag) Time Alt. Az. Time Alt. Az. Time Alt. Az.
28 Nov - 00:36:45 10° NW 00:46:22 73° NE 00:55:42 10° ESE visible
28 Nov - 02:42:08 10° W 02:51:36 64° SSW 03:00:52 10° ESE visible
28 Nov - 04:48:09 10° WSW 04:57:30 66° SSE 05:06:46 10° E visible
28 Nov - 06:53:22 10° WSW 07:02:34 67° NW 07:11:47 10° NE visible
28 Nov - 08:59:54 10° W 09:06:09 20° NW 09:12:27 10° N daylight
28 Nov - 22:12:48 10° N 22:19:43 22° NE 22:26:30 10° E daylight
29 Nov - 00:13:52 10° NW 00:23:28 70° NE 00:32:48 10° ESE visible
29 Nov - 02:19:08 10° W 02:28:38 65° SSW 02:37:56 10° ESE visible
29 Nov - 04:25:11 10° WSW 04:34:33 65° SSE 04:43:47 10° E visible
29 Nov - 06:30:26 10° WSW 06:39:42 70° NW 06:48:56 10° NE visible
29 Nov - 08:36:46 10° W 08:43:21 22° NW 08:50:00 10° N daylight
29 Nov - 21:50:18 10° N 21:56:54 21° NE 22:03:21 10° E daylight
29 Nov - 23:51:00 10° NW 00:00:34 66° NE 00:09:53 10° ESE visible
30 Nov - 01:56:08 10° W 02:05:41 67° SSW 02:15:00 10° ESE visible
30 Nov - 04:02:13 10° WSW 04:11:36 64° S 04:20:50 10° E visible
30 Nov - 06:07:31 10° WSW 06:16:49 74° NNW 06:26:05 10° NE visible
30 Nov - 08:13:39 10° W 08:20:32 24° NW 08:27:29 10° N daylight
30 Nov - 21:27:52 10° NNE 21:34:05 19° NE 21:40:10 10° E daylight
30 Nov - 23:28:07 10° NW 23:37:40 63° NE 23:46:58 10° ESE daylight
01 Dec - 01:33:08 10° W 01:42:43 68° SSW 01:52:04 10° ESE visible
01 Dec - 03:39:15 10° WSW 03:48:38 63° S 03:57:51 10° E visible
01 Dec - 05:44:35 10° WSW 05:53:56 77° NNW 06:03:12 10° NE visible
01 Dec - 07:50:34 10° WSW 07:57:44 26° NW 08:04:56 10° N visible
01 Dec - 21:05:28 10° NNE 21:11:15 17° NE 21:16:57 10° E daylight
01 Dec - 23:05:16 10° NW 23:14:47 60° NE 23:24:02 10° ESE daylight
02 Dec - 01:10:08 10° W 01:19:46 70° SSW 01:29:08 10° ESE visible
02 Dec - 03:16:16 10° WSW 03:25:40 62° S 03:34:53 10° E visible
02 Dec - 05:21:39 10° WSW 05:31:02 80° NNW 05:40:19 10° NE visible
02 Dec - 07:27:30 10° WSW 07:34:55 28° NW 07:42:22 10° N visible
02 Dec - 20:43:09 10° NNE 20:48:27 16° NE 20:53:39 10° E daylight
02 Dec - 22:42:25 10° NW 22:51:54 57° NE 23:01:07 10° ESE daylight
03 Dec - 00:47:08 10° WNW 00:56:48 72° SSW 01:06:12 10° ESE visible
03 Dec - 02:53:17 10° WSW 03:02:43 61° S 03:11:55 10° E visible
03 Dec - 04:58:43 10° WSW 05:08:08 83° NNW 05:17:26 10° NE visible
03 Dec - 07:04:27 10° WSW 07:12:06 30° NW 07:19:45 10° N visible
03 Dec - 20:20:56 10° NNE 20:25:38 14° ENE 20:30:16 10° E daylight
03 Dec - 22:19:35 10° NNW 22:29:01 54° NE 22:38:11 10° ESE daylight
04 Dec - 00:24:08 10° WNW 00:33:51 73° SSW 00:43:18 10° ESE visible
04 Dec - 02:30:18 10° WSW 02:39:44 61° S 02:48:57 10° E visible
04 Dec - 04:35:47 10° WSW 04:45:14 86° NNW 04:54:33 10° ENE visible
04 Dec - 06:41:25 10° WSW 06:49:16 32° NW 06:57:08 10° N visible
04 Dec - 19:58:51 10° NNE 20:02:49 13° ENE 20:06:45 10° E daylight
04 Dec - 21:56:45 10° NNW 22:06:08 51° NE 22:15:15 10° ESE daylight
05 Dec - 00:01:09 10° WNW 00:10:54 75° SSW 00:20:22 10° ESE visible
05 Dec - 02:07:18 10° WSW 02:16:46 61° S 02:26:00 10° E visible
05 Dec - 04:12:51 10° WSW 04:22:20 89° NNW 04:31:38 10° ENE visible
05 Dec - 06:18:23 10° WSW 06:26:27 34° NW 06:34:29 10° NNE visible
05 Dec - 19:37:00 10° NE 19:40:01 12° ENE 19:43:00 10° ENE daylight
05 Dec - 21:33:57 10° NNW 21:43:16 48° NE 21:52:18 10° ESE daylight
05 Dec - 23:38:08 10° WNW 23:47:57 78° SSW 23:57:27 10° ESE daylight
06 Dec - 01:44:18 10° WSW 01:53:47 60° S 02:03:02 10° E visible
06 Dec - 03:49:54 10° WSW 03:59:25 88° SSE 04:08:44 10° ENE visible
06 Dec - 05:55:23 10° WSW 06:03:37 37° NW 06:11:49 10° NNE visible
06 Dec - 19:15:49 10° NE 19:17:12 10° ENE 19:18:35 10° ENE daylight
06 Dec - 21:11:10 10° NNW 21:20:23 46° NE 21:29:21 10° ESE daylight
06 Dec - 23:15:09 10° WNW 23:25:00 80° SSW 23:34:32 10° ESE daylight
07 Dec - 01:21:18 10° WSW 01:30:49 60° S 01:40:03 10° E visible
07 Dec - 03:26:57 10° WSW 03:36:30 85° SSE 03:45:49 10° ENE visible
07 Dec - 05:32:23 10° WSW 05:40:47 39° NW 05:49:07 10° NNE visible
07 Dec - 20:48:23 10° NNW 20:57:31 43° NE 21:06:24 10° ESE daylight
07 Dec - 22:52:10 10° WNW 23:02:03 82° SSW 23:11:37 10° ESE daylight
